Погода в Саблино

Россия / Оренбургская область     53°00′24″N   53°17′14″E
темп.,
°C
ветер,
м/с
пор.,
м/с
влажн.,
%
обл.,
%
осадки,
мм/ч
давл.,
гПа
погр.,
м
17 октября, вс
вс1723:00+6ююв115468 0.0 102410
02:00+5ююв11585 0.0 102310
05:00+4ююв1159100 0.0 102310
08:00+5юв1158100 0.0 102210
11:00+10ююв224785 0.0 1021220
14:00+13ю3447100 0.0 1021592
17:00+13юв3549100 0.0 1019260
20:00+12вюв1144100 0.0 101910
18 октября, пн
пн1823:00+10юв1142100 0.0 101810
02:00+9ссз0146100 0.0 101710
05:00+9юв1145100 0.0 101611
08:00+9вюв1145100 0.2 101510
11:00+11ю3841100 0.2 1015373
14:00+12зюз2547100 0.4 1014494
17:00+15ю2532100 0.4 1012235
20:00+10ююв344193 0.0 101246
19 октября, вт
вт1923:00+10ю3844100 0.0 1011153
02:00+8ю3446100 0.0 101160
05:00+9ююз2846100 0.0 1010224
08:00+8ю2461100 0.0 1010100
11:00+10юз347077 0.0 1010376
14:00+11зсз3365100 0.0 1009754
17:00+10ссз3367100 0.1 1009605
20:00+8ссз3558100 0.0 1009193
20 октября, ср
ср2023:00+6ссз3566100 0.0 1009121
02:00+5ссз588397 0.0 1009282
05:00+4с5992100 0.0 1009386
08:00+2с71295100 0.9 1009448
11:00+3с61091100 1.5 1009626
14:00+6с6854100 0.0 10091398
17:00+6ссз795396 0.1 10091469
20:00+3ссз8127770 0.1 1011735
21 октября, чт
чт2123:00+2ссз7136347 0.1 1012710
02:000сз714735 0.0 1014655
05:00−1сз814704 0.0 1015574
08:00−2сз713855 0.0 1016484
11:00+1сз8117138 0.0 1018790
14:00+4сз68505 0.0 10171027
17:00+4зсз6744100 0.0 10171040
20:00+2юз3954100 0.0 1017292